GFSSW_925_thetae_141.txt.gz
Theta_e
314 315 313 315 321 318 316 323 328 325 323 323 324 323 323 318 315 312 314 328 330 330 314 313 313 314 315 314 314 310 314 317 317 315 317 313 315 313 315 319 325 329 329 330 333
314 314 313 313 321 319 316 321 325 326 325 324 324 323 321 317 314 312 321 324 328 315 311 313 315 316 317 314 313 312 313 316 315 313 314 313 314 313 319 327 334 334 330 332 333
313 314 314 314 314 320 316 319 327 327 326 325 325 325 324 315 312 313 322 319 325 314 312 314 316 315 319 316 314 314 315 314 314 313 313 313 313 312 317 320 329 332 330 332 333
312 313 313 313 315 320 317 319 325 327 326 325 325 325 321 314 329 313 323 318 322 311 312 313 314 315 315 320 315 315 313 313 313 314 313 312 311 316 316 316 318 330 331 333 333
311 311 313 314 313 320 317 318 324 325 325 324 324 319 313 313 315 312 312 316 314 312 312 311 314 315 318 314 312 313 313 312 311 313 311 310 312 314 314 312 326 331 331 333 333
309 310 308 313 313 320 318 317 322 324 324 322 317 313 311 315 311 311 313 314 312 310 310 311 312 315 316 317 318 312 312 312 311 312 312 312 312 312 312 322 331 332 332 331 333
309 309 309 313 313 317 318 317 321 323 322 317 314 313 311 313 311 313 313 314 312 310 309 311 312 313 313 319 314 312 312 311 312 312 312 311 314 312 310 326 333 333 332 331 332
308 307 311 313 315 313 318 317 319 322 320 316 314 312 310 310 311 314 314 312 311 310 310 311 312 310 311 309 310 310 310 312 311 311 311 312 313 313 311 328 332 331 330 330 329
307 306 309 314 314 313 318 317 320 321 319 313 312 312 311 310 312 313 313 310 310 310 311 311 311 309 308 308 310 309 311 311 311 310 311 312 313 312 308 322 328 329 331 331 330
307 306 306 310 314 312 318 316 319 316 314 311 311 313 312 310 311 311 311 310 309 308 309 309 306 308 305 308 318 311 311 310 311 310 309 311 311 309 307 314 320 323 323 325 327
307 306 306 308 312 313 317 317 313 313 311 312 310 314 312 309 310 310 309 309 307 307 308 308 308 308 307 306 308 308 310 311 310 309 310 309 310 309 306 306 307 309 312 316 324
306 306 307 308 309 314 317 316 315 312 316 311 310 312 313 310 310 310 309 309 307 308 307 308 309 307 308 307 308 309 309 309 309 309 310 309 309 307 306 305 304 305 303 305 306
306 305 307 308 309 314 317 316 313 313 315 312 311 313 314 311 311 310 307 307 307 307 307 309 309 307 308 308 309 308 308 307 310 309 309 309 308 309 307 305 305 302 302 302 303
305 305 306 309 309 314 317 315 312 314 313 313 314 311 312 315 317 311 308 308 307 308 306 308 307 308 308 309 307 308 307 308 308 308 310 306 309 305 305 307 305 305 302 303 302
304 305 305 309 312 315 315 312 312 312 320 313 311 309 309 318 316 316 311 308 307 306 306 307 307 307 309 308 307 308 307 308 307 306 307 307 306 305 304 304 304 306 306 304 304
304 305 306 309 308 316 313 312 307 312 314 312 311 311 312 310 314 314 312 309 306 307 307 306 306 307 307 307 306 306 306 305 303 305 308 306 306 305 303 305 305 303 305 307 304
304 305 307 310 310 315 310 309 311 316 310 311 310 310 313 310 311 314 313 313 310 307 307 307 307 306 307 307 306 307 306 307 307 308 309 304 304 307 305 303 303 304 303 301 300
303 304 308 310 309 312 309 311 314 310 309 308 309 309 311 309 310 316 314 313 312 306 306 307 309 306 306 307 306 305 306 308 309 309 307 305 307 307 304 305 302 302 303 301 299
302 304 310 311 312 311 310 313 310 309 308 310 309 310 309 310 308 311 315 315 313 307 307 306 307 307 306 306 307 306 306 305 307 298 306 305 304 305 305 304 303 303 305 304 301
302 309 311 310 312 309 310 313 307 307 308 309 310 309 310 310 309 311 311 313 313 309 306 305 308 307 307 307 307 306 306 309 306 308 309 306 306 305 306 306 304 305 304 304 303
302 311 311 309 310 310 312 311 307 306 308 309 308 309 308 310 309 310 310 308 311 307 305 305 307 308 307 307 307 306 306 306 306 307 309 306 304 302 307 306 304 304 303 303 302
304 311 312 311 309 306 311 308 307 307 308 307 307 306 307 309 308 309 308 307 309 305 308 308 308 308 308 307 306 306 307 307 310 308 305 307 306 304 302 302 304 303 303 303 303
302 302 312 311 309 308 311 309 308 308 308 307 307 306 306 308 309 308 307 307 307 307 309 309 309 309 309 308 308 308 306 305 304 305 306 307 307 302 304 306 305 303 301 302 302
299 307 306 312 308 309 311 311 308 308 308 307 306 306 307 307 307 308 307 307 307 307 311 310 309 310 310 309 308 309 307 305 306 306 306 306 307 306 305 306 308 306 304 302 302
296 302 299 312 305 309 311 311 309 309 307 307 307 307 307 307 307 307 308 307 307 310 309 309 310 307 306 307 308 308 308 307 308 309 309 309 305 305 303 303 304 305 304 304 303
299 300 298 307 308 309 311 311 309 308 307 309 307 307 307 306 307 307 307 307 307 308 307 305 303 304 302 306 306 308 308 307 307 309 308 306 305 304 303 304 304 304 304 304 304
291 292 299 306 308 311 311 311 309 308 309 308 307 306 306 306 306 306 306 306 306 307 306 306 303 305 300 303 305 307 308 308 308 308 308 307 307 303 303 302 302 303 303 304 303

GFSSW_925_thetae_144.txt.gz
Theta_e
314 315 315 314 313 317 320 319 316 325 325 320 319 320 322 320 318 318 320 326 328 330 317 313 313 314 314 313 312 309 314 316 317 317 321 313 316 313 315 327 325 326 326 328 334
314 314 315 315 313 314 320 321 316 325 325 322 324 321 323 318 315 312 322 325 328 327 329 313 314 316 315 313 312 312 313 315 314 312 315 313 315 313 322 328 331 332 328 331 332
311 311 314 315 314 313 318 321 316 324 325 320 322 323 322 320 313 314 322 324 323 331 325 322 316 316 322 318 313 313 314 313 314 313 312 314 313 313 320 326 324 329 328 330 330
311 311 312 314 314 314 314 320 317 324 326 324 323 323 322 319 330 314 321 321 321 312 312 315 316 318 322 329 318 314 312 312 312 312 312 312 310 314 318 318 316 325 329 331 330
311 311 311 313 314 314 314 315 318 321 324 324 324 323 323 317 322 319 312 318 318 312 312 313 318 316 322 320 314 313 312 311 311 312 311 310 312 314 315 313 324 328 331 331 331
310 309 310 310 313 313 314 316 319 321 325 324 324 324 320 326 316 323 313 313 316 311 311 313 314 317 322 316 315 311 311 311 311 311 310 312 311 314 314 325 328 329 331 331 331
308 309 308 310 309 313 313 318 319 324 324 322 323 321 316 323 320 312 313 317 315 311 310 312 315 316 315 319 314 317 317 310 311 312 311 310 313 311 310 327 329 329 330 331 331
307 309 308 309 309 312 314 316 318 323 323 322 320 317 313 313 319 312 315 315 312 310 311 312 313 311 314 312 309 313 313 318 311 311 309 310 314 312 314 326 329 328 326 327 328
306 308 307 307 310 311 312 312 317 322 321 318 314 312 312 312 313 312 313 312 309 310 310 310 311 309 308 308 309 308 311 311 312 310 310 311 312 310 313 323 326 328 326 327 328
305 307 306 306 310 309 312 313 317 321 319 314 312 313 310 312 312 312 311 310 309 308 309 308 305 307 304 308 315 309 310 310 311 310 310 311 311 309 307 319 322 326 326 327 327
305 307 306 305 307 311 314 316 317 315 313 312 311 313 311 311 310 311 309 308 307 307 308 307 308 311 306 307 311 309 310 311 309 308 310 310 311 309 307 306 310 315 321 323 326
306 306 306 306 307 309 312 316 317 312 316 312 310 311 310 311 310 309 310 308 308 307 306 308 309 307 307 306 308 310 312 310 309 309 309 309 309 307 306 305 305 309 310 317 317
304 305 306 306 307 309 311 312 315 314 316 313 310 312 313 311 310 309 308 307 307 307 307 308 309 307 308 307 307 307 308 307 311 309 308 309 308 308 307 304 304 303 304 305 310
304 304 306 305 306 308 311 313 314 314 317 316 312 314 313 313 314 310 308 308 307 307 307 308 306 308 308 308 306 308 307 307 308 309 310 306 311 308 306 307 304 304 302 303 301
303 304 305 305 307 309 310 313 313 314 323 314 313 311 312 313 313 314 310 307 307 306 307 307 307 307 308 308 307 309 305 307 307 306 307 306 306 306 304 304 304 305 305 304 304
302 303 304 305 306 308 311 313 312 317 318 313 312 312 316 314 314 312 312 308 305 307 305 306 305 307 308 306 307 304 305 303 302 303 308 307 307 308 304 304 305 303 304 306 306
302 303 304 305 307 306 309 311 314 321 309 312 313 316 315 317 315 311 311 311 307 308 307 306 307 306 306 306 305 305 306 307 309 307 310 303 304 311 306 303 304 305 304 300 300
302 302 302 304 306 308 309 312 318 313 312 310 312 317 316 317 315 311 311 311 310 305 306 308 308 306 305 306 306 305 306 308 310 308 307 303 306 307 303 303 301 301 301 303 301
302 301 302 304 305 308 311 313 315 312 309 310 313 317 313 312 317 313 311 310 310 308 307 306 306 306 305 305 307 306 306 305 306 296 304 304 303 303 304 303 302 301 300 301 301
301 302 304 304 307 307 309 313 310 309 308 310 313 312 314 312 317 317 314 311 311 310 305 306 308 306 306 306 306 305 306 309 306 306 307 305 305 306 307 305 304 302 302 302 302
301 304 306 306 308 305 310 313 306 306 308 310 308 309 311 312 315 318 315 312 312 310 304 304 307 308 307 306 306 306 306 305 306 306 308 305 304 301 304 303 303 301 302 302 301
301 305 308 309 307 303 309 310 306 307 306 306 306 307 310 310 310 315 315 311 313 311 311 305 306 308 307 306 304 305 306 308 310 307 304 306 306 303 301 301 301 301 300 302 302
302 303 306 307 308 308 308 310 306 307 307 306 306 306 307 310 308 312 311 311 313 312 312 308 309 310 309 308 308 306 305 306 304 305 306 308 308 302 303 304 304 302 302 301 303
299 305 305 306 306 308 310 312 308 307 307 305 305 305 308 308 306 310 308 308 310 310 312 309 309 310 311 309 307 309 306 304 306 306 308 307 306 306 305 306 304 305 303 302 301
295 301 300 307 306 308 311 310 308 309 307 305 305 306 307 308 307 307 306 306 307 310 309 309 311 309 306 306 308 308 307 306 308 310 310 310 307 306 304 303 303 304 304 303 303
299 298 298 303 307 308 311 310 309 308 307 307 306 306 306 306 308 306 306 306 307 307 307 305 305 304 303 306 306 308 307 306 307 308 308 308 305 303 302 303 303 303 303 303 303
292 293 297 305 304 308 309 310 309 308 307 307 306 305 305 304 304 305 305 305 305 307 306 306 303 304 302 303 306 308 307 307 307 307 308 307 308 304 304 302 302 302 302 303 303

GFSSW_925_thetae_147.txt.gz
Theta_e
315 315 315 315 315 316 314 313 317 318 320 324 325 322 320 322 321 321 320 324 325 321 311 313 313 314 314 312 311 310 315 316 316 318 321 314 317 314 318 329 326 327 326 327 332
313 315 315 315 315 316 315 313 318 319 318 324 324 321 321 321 317 314 323 324 326 327 320 314 314 317 315 313 312 313 314 315 314 313 315 314 316 315 325 328 329 330 327 329 330
310 313 314 313 312 315 314 313 315 320 317 324 324 319 319 320 315 316 320 321 325 328 331 319 316 316 321 317 312 312 314 312 313 313 312 314 313 314 325 329 325 330 329 329 328
310 310 311 311 311 314 315 314 313 319 317 323 324 321 321 321 326 315 317 319 323 325 330 320 318 320 323 324 316 314 312 311 311 312 311 313 311 315 322 323 319 324 328 329 331
308 310 310 310 310 312 315 314 313 318 317 323 323 322 320 321 324 313 315 319 318 316 325 319 320 321 325 325 318 313 311 310 310 311 311 309 312 315 317 312 319 327 329 329 330
308 308 310 310 309 309 314 314 313 314 318 323 322 322 321 324 320 317 314 318 317 312 314 319 320 320 322 318 318 315 310 310 311 311 309 311 310 314 313 323 326 329 329 329 330
308 306 307 309 309 309 311 313 314 313 318 322 323 321 322 323 319 320 317 316 318 313 312 316 320 323 324 324 317 317 312 311 310 311 311 310 312 311 312 325 328 328 329 330 329
307 306 305 307 308 309 309 312 313 312 318 321 323 320 322 316 318 314 314 316 317 310 312 312 319 316 319 318 316 316 320 332 312 310 310 311 316 311 314 325 328 327 327 330 328
306 305 306 308 307 309 309 311 314 314 319 320 318 318 318 314 315 312 313 315 310 309 311 311 311 311 309 310 311 311 324 322 315 308 310 311 315 310 313 322 324 327 327 328 329
305 303 305 307 306 307 309 311 313 312 319 316 314 316 312 316 313 312 311 315 310 308 308 309 308 307 306 316 328 311 312 312 319 310 309 311 311 309 309 320 320 326 326 327 328
304 305 306 307 306 306 309 312 314 318 314 316 314 315 311 312 315 312 311 311 311 309 310 307 311 314 308 312 311 309 310 310 309 308 310 310 311 310 306 311 317 318 324 326 327
304 305 306 307 307 308 308 312 310 315 319 312 312 310 310 312 312 311 312 312 312 313 308 308 312 309 306 307 310 309 310 310 308 308 309 309 310 309 306 306 307 311 315 323 323
305 305 306 306 305 307 308 309 311 314 317 313 312 311 311 310 312 311 311 310 311 310 311 310 308 306 307 306 308 309 312 309 312 308 307 308 309 309 306 305 304 304 308 311 319
305 305 305 304 306 307 308 308 307 311 319 316 313 313 311 310 312 309 310 310 310 311 310 308 306 307 307 306 306 308 306 308 308 310 315 306 313 309 308 307 305 305 302 306 307
304 304 304 305 306 306 306 306 307 312 324 315 313 312 311 314 310 310 308 307 312 308 308 310 307 307 308 307 306 308 305 306 307 307 306 306 308 307 306 307 305 306 305 304 304
304 303 304 305 306 307 309 305 312 317 319 313 313 315 314 311 311 310 309 305 305 308 307 306 305 307 307 305 306 303 304 303 301 303 308 307 307 308 306 306 307 304 305 306 306
304 303 304 304 304 305 306 311 312 317 309 310 315 315 315 312 312 310 310 308 310 312 313 307 306 305 305 305 305 305 307 308 309 309 310 302 304 312 307 303 304 306 306 305 304
303 302 303 303 304 305 305 304 314 314 314 310 313 315 317 312 312 310 310 310 308 308 312 311 310 305 304 306 305 305 307 309 311 310 308 302 306 308 304 303 301 301 301 301 300
302 303 302 302 302 304 305 306 314 313 311 314 315 317 317 315 312 311 311 311 309 306 314 312 310 305 305 304 307 305 307 305 305 296 306 305 303 303 303 303 302 301 301 300 300
302 301 301 301 301 303 305 310 312 310 310 315 318 316 317 315 313 312 313 311 310 306 305 307 309 305 306 305 305 306 305 308 306 307 307 305 305 307 307 306 302 303 301 299 299
300 301 301 301 303 304 305 307 311 307 312 316 316 314 316 315 313 312 312 309 309 308 304 305 308 307 306 308 307 306 305 305 306 306 309 305 306 301 304 304 304 303 300 301 300
301 300 303 303 305 303 304 306 309 308 308 306 308 309 316 316 314 312 311 311 308 307 308 305 308 310 308 305 304 305 306 307 309 307 304 306 307 302 301 300 300 300 299 298 300
300 300 302 305 305 306 306 307 309 309 309 307 308 307 312 315 317 314 313 309 309 309 309 306 308 309 309 307 307 305 304 305 304 305 306 309 309 301 299 301 302 302 300 299 302
300 302 301 304 305 306 307 309 310 309 307 305 305 309 313 313 308 316 313 310 311 310 311 309 308 310 310 309 307 308 306 304 307 308 307 308 308 305 305 305 305 304 303 301 301
296 301 300 303 302 306 306 309 310 310 308 305 305 310 311 311 307 310 307 307 311 312 309 309 312 309 305 306 308 308 307 306 308 309 309 309 308 306 305 302 306 304 304 303 302
297 298 297 303 305 306 308 310 310 309 307 307 307 308 308 309 311 308 305 307 313 307 310 305 309 305 303 305 307 308 307 306 307 308 308 308 306 305 302 301 302 302 303 303 302
294 293 299 305 304 306 309 309 310 308 306 307 305 306 306 305 304 304 305 305 307 308 307 307 303 307 306 303 307 309 307 307 307 306 308 308 308 302 302 301 301 302 300 302 301

GFSSW_925_thetae_150.txt.gz
Theta_e
314 315 315 315 316 315 314 316 314 314 319 317 320 326 327 327 318 316 320 320 319 316 320 314 312 313 315 316 316 316 323 325 320 321 324 323 327 321 324 330 331 331 329 331 333
313 313 314 316 315 314 315 315 314 316 317 318 320 325 323 320 320 319 319 320 322 323 312 314 316 315 317 316 315 320 327 325 319 320 323 324 326 322 328 331 332 332 331 333 331
312 312 311 314 315 313 314 313 315 314 317 319 318 323 322 320 319 319 318 322 324 325 326 314 318 318 318 317 317 317 327 321 318 317 317 323 320 322 328 331 329 331 333 329 332
311 311 310 312 314 313 311 312 315 313 314 319 319 322 321 319 329 319 318 319 324 327 324 319 319 321 324 319 315 319 316 317 315 316 315 321 323 322 327 327 323 328 331 331 332
310 309 309 310 311 312 310 312 315 314 314 318 319 321 320 322 323 316 315 319 321 325 327 326 324 322 324 326 319 316 316 314 313 314 315 315 320 324 323 319 320 329 331 332 332
310 309 307 310 310 310 309 311 315 315 314 316 319 321 320 324 320 320 315 318 320 324 327 325 329 323 326 324 320 316 314 313 312 314 313 316 315 317 321 321 325 331 332 332 332
309 309 307 309 309 309 308 309 310 315 314 314 319 320 322 322 320 322 319 319 319 320 325 326 322 329 322 326 322 317 318 313 313 314 314 314 315 316 318 322 327 330 331 332 331
309 308 307 305 307 308 309 309 309 309 314 314 320 321 324 317 320 320 318 318 317 313 315 319 324 325 327 321 320 321 322 324 319 314 313 314 319 319 317 323 325 328 331 332 331
308 307 305 306 304 306 308 309 309 311 312 314 315 321 322 313 316 317 316 317 315 312 312 315 319 319 322 328 327 321 329 329 323 314 314 316 319 318 317 323 323 327 330 332 331
307 305 305 306 306 307 307 309 309 310 313 314 317 322 313 319 313 312 314 314 312 311 311 315 314 314 319 333 338 330 319 318 334 316 313 316 317 313 314 321 322 326 328 331 332
306 305 304 305 306 308 308 309 309 312 312 319 318 319 316 315 313 312 312 312 311 312 315 312 315 320 317 328 331 327 331 332 322 311 315 316 317 317 313 317 321 323 326 328 330
306 305 304 305 307 307 308 310 309 310 314 316 315 317 314 315 316 313 312 314 314 315 311 309 315 317 317 319 316 324 332 329 311 310 314 316 316 317 314 313 317 320 322 326 328
306 305 304 306 307 308 308 308 309 310 309 317 315 315 315 317 315 315 314 313 312 315 311 313 314 310 311 316 317 320 328 317 319 311 310 312 316 315 314 313 312 313 317 320 325
306 304 304 306 306 307 307 308 308 308 310 315 317 313 313 316 317 313 313 311 311 310 310 311 308 308 309 315 316 317 314 315 313 317 324 311 328 321 318 313 312 313 313 314 318
306 304 305 306 306 307 306 307 307 305 316 314 315 312 313 317 314 314 312 313 312 309 310 313 309 309 312 311 311 316 311 314 312 317 314 312 320 323 314 315 314 313 314 314 314
305 304 305 306 306 307 305 305 305 308 317 316 314 314 315 313 315 313 312 309 311 310 310 311 306 308 310 306 310 307 309 309 309 311 319 318 316 320 317 315 318 314 314 314 313
305 304 304 304 305 306 306 304 307 313 311 312 314 315 316 314 314 316 311 313 315 315 316 311 309 308 305 309 307 310 314 315 318 317 321 306 310 318 315 311 311 314 313 313 314
304 303 304 304 304 304 303 305 308 313 313 308 315 315 317 314 315 317 312 316 314 315 315 320 316 310 308 312 310 311 316 317 320 317 317 305 313 314 310 311 310 310 309 309 309
304 303 303 304 303 303 304 304 306 313 312 312 316 317 317 314 313 315 314 315 313 314 321 320 317 307 306 306 310 311 313 311 310 305 313 312 310 309 311 309 308 308 307 308 308
303 302 302 302 303 303 304 303 305 306 306 314 318 319 317 315 313 314 315 314 311 312 309 314 311 307 306 307 306 310 310 313 312 317 315 311 310 314 311 312 310 308 309 309 307
301 303 302 301 302 304 305 304 308 309 307 315 317 314 317 316 313 314 313 313 312 310 307 313 315 309 308 311 311 309 311 310 313 311 316 314 313 310 310 310 309 308 306 306 306
302 303 302 301 304 304 304 304 305 306 309 306 314 316 317 315 314 314 314 314 311 310 311 311 311 312 311 307 305 307 310 310 317 311 309 310 313 305 307 306 305 308 307 306 304
301 303 302 302 305 304 303 303 305 309 308 305 312 314 315 315 314 315 314 311 311 311 309 309 311 313 311 309 307 309 309 311 309 310 316 319 315 307 304 306 307 307 307 304 305
301 302 303 303 304 303 303 303 303 304 306 306 307 314 315 315 313 315 314 311 311 310 310 310 310 315 315 316 311 310 309 309 310 319 314 313 313 309 308 307 307 307 307 305 306
298 302 301 303 305 305 304 305 304 304 308 307 308 316 316 318 315 315 312 312 311 311 309 311 315 311 307 308 310 310 308 308 309 310 312 312 311 311 311 309 308 308 308 307 306
299 300 298 303 302 304 306 305 309 308 309 310 311 315 316 317 317 315 313 313 312 311 309 307 316 311 309 309 309 310 309 308 309 310 310 310 310 309 310 309 309 308 306 307 307
295 294 302 303 303 303 304 307 307 307 309 309 309 315 316 316 313 313 313 313 312 312 310 311 313 317 318 310 312 316 310 310 310 310 310 310 311 307 306 306 308 309 307 306 306

GFSSW_925_thetae_153.txt.gz
Theta_e
313 314 315 316 316 316 314 313 313 314 314 316 319 319 322 328 326 320 323 324 320 322 316 319 327 313 314 318 319 321 330 334 333 323 322 326 329 325 327 332 330 331 329 332 334
313 314 314 315 316 315 315 316 315 316 314 316 319 320 320 327 323 321 325 322 320 319 319 322 318 317 315 318 319 323 333 334 331 323 322 326 328 327 329 331 332 332 332 334 332
312 312 314 314 313 315 314 314 313 315 314 315 319 320 322 324 322 323 322 320 321 318 318 318 318 319 319 319 319 324 332 332 325 320 321 326 328 326 329 332 330 331 333 334 331
311 311 312 312 311 314 315 313 312 312 314 314 319 320 322 320 331 322 322 320 320 323 317 317 318 320 323 319 321 325 324 327 324 318 319 326 325 325 329 330 328 328 332 331 332
310 310 310 309 310 313 315 313 311 313 315 314 317 320 321 322 322 320 319 319 324 324 325 320 320 321 325 323 320 319 321 319 317 317 317 321 326 326 327 327 323 328 333 333 334
310 310 310 308 310 311 312 312 310 312 315 314 315 320 321 323 322 322 317 319 325 326 326 324 322 322 323 326 321 320 318 318 316 317 316 318 321 324 325 326 325 330 333 333 333
309 310 310 308 308 310 310 310 309 311 316 315 314 318 321 322 321 319 317 319 321 326 328 326 326 325 325 327 323 319 318 315 316 317 317 317 317 318 323 325 325 330 331 332 332
308 308 310 309 307 309 309 310 309 309 313 315 314 314 321 320 319 318 318 320 318 318 319 328 327 327 328 324 324 327 324 323 319 316 316 317 319 320 320 322 325 328 329 331 332
309 308 309 308 307 307 308 309 311 311 311 311 314 313 319 316 318 319 319 320 316 311 313 322 324 324 323 331 329 324 334 329 327 317 317 317 320 319 319 322 323 326 327 331 331
309 308 309 308 306 306 306 307 310 310 312 314 313 317 315 319 315 316 318 319 316 312 314 317 318 321 317 334 341 334 335 327 333 321 320 318 323 319 318 321 322 324 327 329 330
310 308 308 307 306 308 308 309 309 310 311 314 312 312 314 317 315 315 314 314 313 315 319 316 323 330 329 329 334 335 335 332 331 326 320 325 323 324 318 320 323 323 325 327 329
309 309 308 306 307 308 307 308 307 311 313 311 312 312 314 316 318 315 315 318 316 318 314 315 322 326 323 322 333 334 333 334 320 317 318 324 325 325 322 317 320 323 323 325 326
309 308 307 305 306 307 307 306 310 310 309 310 312 312 315 316 318 316 317 316 318 316 315 318 321 320 319 321 324 333 335 335 331 315 314 318 327 325 323 319 317 318 322 323 325
309 308 306 304 306 306 307 307 309 307 310 310 313 316 316 318 319 314 314 313 312 314 313 316 314 316 319 321 321 333 333 330 316 318 330 319 337 333 327 323 319 317 317 320 321
308 308 305 303 304 307 306 307 307 305 309 310 314 315 317 318 316 316 313 312 313 310 311 315 314 311 319 318 318 326 322 322 318 322 326 318 323 327 327 325 319 318 317 317 318
308 307 304 304 306 306 307 307 306 309 308 316 315 317 320 318 318 315 313 311 309 310 308 309 309 310 315 315 314 314 315 315 317 322 327 326 323 328 325 323 322 319 317 317 317
308 306 305 305 306 306 307 308 308 307 312 317 314 316 320 319 318 314 314 313 314 316 317 310 309 310 309 312 309 313 321 319 323 322 327 313 322 322 320 317 318 320 320 317 317
307 306 305 305 306 305 305 307 304 308 311 309 310 313 317 317 318 314 316 318 314 316 316 319 318 311 311 312 315 315 325 324 329 328 325 308 317 318 316 317 318 315 314 315 317
306 306 305 305 305 305 308 308 307 309 307 311 312 314 318 315 319 316 318 319 318 317 321 320 319 312 312 312 312 315 316 317 314 310 319 316 315 314 314 312 311 312 312 312 313
305 305 304 305 305 306 307 306 303 308 307 307 312 314 318 316 320 318 319 318 318 316 317 318 315 313 309 308 310 309 315 316 316 320 321 318 315 318 314 314 313 310 311 311 312
303 304 303 304 304 307 305 304 303 302 303 308 309 313 313 318 320 319 319 318 316 316 316 319 314 312 310 311 314 312 314 315 316 315 322 319 316 313 315 313 312 310 309 309 309
302 305 303 303 305 304 306 304 305 307 306 308 306 308 310 316 320 321 319 318 315 313 316 318 317 314 314 311 311 311 312 314 318 316 311 313 317 308 310 309 309 310 310 309 308
303 304 303 303 305 305 304 303 303 303 307 308 308 308 309 315 318 319 318 316 314 313 315 311 316 317 315 314 313 312 311 313 313 313 318 325 318 309 307 308 309 310 309 308 308
303 304 303 303 304 303 304 303 304 304 307 306 308 306 307 312 316 318 317 314 314 313 311 311 314 318 318 316 316 315 313 312 314 323 319 316 317 309 309 309 309 309 309 308 309
298 303 302 303 304 304 303 303 304 304 305 306 308 307 308 315 317 317 316 313 313 314 311 315 316 313 309 311 317 315 313 311 313 314 316 316 314 313 311 310 310 310 309 310 309
300 300 299 304 302 304 304 304 304 304 305 306 307 306 307 308 317 317 315 314 314 310 313 315 317 312 311 311 314 319 316 314 311 312 313 314 314 313 313 312 311 310 310 309 309
296 297 306 304 305 305 305 305 304 304 304 305 308 308 309 309 315 315 313 312 312 313 314 314 313 317 316 312 314 314 313 311 313 313 313 313 313 311 309 308 310 311 311 311 309

GFSSW_925_thetae_156.txt.gz
Theta_e
313 314 314 316 316 316 314 314 313 313 313 314 315 319 318 322 328 323 320 324 324 319 321 328 324 327 324 316 317 320 327 331 331 327 327 324 327 326 327 330 330 330 332 333 333
313 313 314 315 315 316 313 313 315 315 315 315 315 320 319 322 326 324 325 325 323 320 316 322 322 319 320 317 318 320 329 330 329 327 322 324 327 326 329 330 332 331 334 333 332
311 312 312 314 314 314 315 313 313 313 315 315 315 319 319 323 323 324 325 325 320 320 322 320 322 322 320 319 318 321 322 331 330 326 320 324 325 325 328 331 330 331 336 332 331
310 310 311 311 312 311 312 313 313 313 312 314 314 319 322 321 324 323 324 324 322 317 320 320 319 323 324 323 321 320 322 325 329 319 319 323 325 326 327 329 328 328 334 332 330
310 309 310 310 311 310 311 315 314 312 310 313 315 316 320 322 321 322 322 323 321 318 319 321 324 322 325 322 322 322 320 322 323 318 317 320 325 325 325 322 324 329 334 331 330
311 309 310 309 310 309 310 313 315 313 311 315 315 315 319 322 319 321 321 322 323 323 320 321 323 322 323 326 324 323 321 319 319 317 317 319 321 323 324 321 326 333 332 330 331
312 310 309 309 309 308 311 313 313 311 310 315 315 315 318 319 320 320 320 321 322 324 324 322 322 326 323 326 325 323 326 321 317 316 317 316 318 320 322 321 325 332 331 331 332
312 310 309 309 309 308 310 311 310 309 311 315 315 315 317 318 319 318 318 319 321 323 324 326 323 326 326 324 325 328 325 327 318 316 316 316 318 317 315 322 323 327 328 331 331
312 311 309 309 309 307 310 310 310 310 309 310 314 314 316 316 319 319 318 318 316 315 319 325 325 327 326 330 330 329 334 329 326 317 316 315 318 317 316 321 322 325 326 329 329
311 311 309 309 309 307 309 308 309 310 311 313 313 316 313 315 317 319 319 318 315 314 318 320 319 327 329 331 335 333 333 331 331 318 316 315 316 320 316 318 320 322 324 327 328
311 311 310 310 309 307 307 308 308 309 311 312 312 312 314 315 316 318 319 316 315 318 322 318 325 329 331 330 330 331 330 333 329 326 318 319 317 319 315 316 318 318 322 324 328
310 310 310 309 309 308 307 307 307 311 311 309 310 312 312 315 318 316 316 319 318 322 317 319 325 324 327 327 328 330 336 332 328 321 320 321 321 321 320 315 317 318 319 323 324
311 310 309 309 308 308 307 307 309 309 308 308 311 310 313 313 316 316 317 318 320 318 320 324 322 321 324 327 331 331 333 336 335 318 317 315 320 324 324 320 315 317 318 319 322
311 310 309 308 307 307 307 305 308 307 309 306 308 311 312 314 315 315 315 319 315 319 319 320 315 321 323 323 328 333 329 333 331 324 332 318 337 331 326 324 315 314 315 316 318
311 310 309 307 305 307 306 307 307 307 306 305 311 313 313 314 316 318 316 314 313 312 314 316 316 317 322 323 324 331 319 325 328 331 329 328 321 327 327 326 323 316 313 314 316
310 309 308 305 305 306 307 306 306 310 305 313 315 315 315 315 316 316 316 311 311 312 310 311 309 312 316 317 319 318 320 325 321 328 331 330 325 324 326 326 325 321 315 313 313
310 308 307 304 306 306 306 307 307 306 308 310 314 315 316 317 317 316 311 310 314 315 317 309 310 310 311 315 312 316 320 323 326 326 331 327 321 324 322 320 321 321 316 314 313
309 308 306 305 306 307 306 306 304 301 309 311 313 313 318 317 317 315 313 313 316 317 317 319 317 311 312 316 318 313 318 327 332 328 322 309 323 322 318 316 314 313 311 311 312
308 307 305 306 307 307 306 305 302 306 301 311 311 312 314 318 313 312 315 315 316 316 320 319 318 311 312 311 315 315 318 318 319 310 317 314 313 313 312 310 310 310 311 311 311
307 306 305 306 307 306 305 304 304 306 306 305 309 312 314 315 315 312 316 318 319 315 315 317 316 313 310 310 311 313 314 320 318 317 319 316 316 316 314 312 310 309 309 309 309
306 306 305 306 305 306 305 304 304 307 307 308 309 310 314 316 316 315 317 319 318 316 316 315 314 311 311 313 316 315 316 315 318 316 323 314 312 311 313 311 308 308 308 306 308
302 304 305 305 306 305 306 305 303 303 303 307 308 308 308 309 312 315 319 319 317 316 319 318 313 313 314 311 312 313 315 316 319 316 309 314 314 308 307 306 307 307 306 305 306
302 305 305 305 306 306 305 304 303 304 305 307 306 307 307 309 311 313 317 316 316 316 318 317 317 315 316 314 309 313 313 314 315 312 312 315 316 307 305 306 307 307 306 304 303
303 306 305 304 305 304 304 304 304 304 305 306 306 308 308 309 309 311 311 316 316 316 316 314 316 318 319 317 313 315 314 315 315 314 316 314 312 307 307 306 306 306 305 305 304
298 303 301 304 304 304 303 304 304 304 304 306 306 307 308 308 309 310 312 314 316 315 312 315 316 314 309 315 315 315 316 316 316 314 315 314 313 308 306 306 306 306 306 306 306
301 302 299 303 304 304 304 304 304 304 305 306 307 307 307 308 308 312 308 316 317 312 314 316 316 310 311 311 316 316 317 317 315 316 317 314 313 311 307 306 306 306 306 306 306
298 298 303 303 303 304 304 304 303 303 303 303 305 305 307 308 307 307 307 307 308 314 314 316 313 314 317 314 316 318 316 316 316 312 314 315 313 308 308 307 307 308 308 307 306

GFSSW_925_thetae_162.txt.gz
Theta_e
312 313 313 313 313 314 313 313 314 314 313 311 313 314 316 318 320 324 326 325 326 323 323 326 331 330 329 323 320 316 318 326 327 328 327 323 322 324 325 326 329 331 331 331 331
311 311 313 314 313 313 313 313 314 312 311 310 311 313 317 319 320 320 323 325 325 325 324 325 327 328 326 322 320 321 320 324 324 325 324 320 320 322 329 329 332 332 331 331 331
311 311 311 312 313 312 311 313 313 312 312 312 313 313 317 319 319 318 318 321 325 324 323 325 327 326 327 324 325 321 324 320 320 323 320 322 319 322 327 329 329 332 331 330 330
311 310 311 311 311 311 312 314 314 312 312 311 313 314 317 319 305 321 321 320 325 324 320 325 324 327 328 329 323 328 326 326 325 323 321 322 315 323 325 327 325 328 331 330 330
312 311 310 311 310 310 310 313 314 312 312 311 312 314 317 316 316 317 318 322 324 321 319 321 325 326 329 327 325 328 327 327 328 323 322 321 320 315 322 322 324 330 330 330 330
313 312 311 310 310 310 309 310 311 311 312 310 310 314 316 315 314 313 314 320 324 319 320 321 324 323 326 326 326 326 326 326 325 325 323 324 322 317 320 319 331 331 331 330 329
313 312 311 311 309 309 309 309 310 312 313 311 313 314 315 313 316 319 318 320 324 319 320 321 322 324 322 324 322 325 328 327 326 327 325 320 326 315 314 320 332 332 331 330 329
314 312 311 310 310 309 309 308 310 313 313 310 314 314 312 314 315 316 318 321 323 321 320 321 322 322 323 322 324 327 327 330 326 326 324 323 330 320 315 322 331 332 330 330 328
314 312 312 311 310 309 308 307 310 313 311 311 313 313 312 314 315 314 316 318 320 321 322 322 322 324 323 327 329 328 332 329 327 325 320 323 326 322 313 319 327 332 331 330 329
314 312 312 311 310 309 308 309 311 311 312 312 312 313 311 312 314 317 317 318 316 318 321 323 324 326 327 328 331 331 332 327 329 326 326 322 324 322 320 316 319 328 330 330 329
315 312 311 312 309 309 307 310 310 310 310 309 309 309 312 315 317 316 317 316 316 319 324 322 325 327 327 326 327 327 328 329 327 327 329 328 327 327 324 316 312 315 327 328 329
315 313 311 312 310 309 308 307 307 306 309 309 308 309 312 314 314 316 317 317 318 319 318 321 324 321 324 325 326 325 329 329 328 327 330 329 329 327 327 321 312 313 319 327 328
314 313 312 312 310 309 309 307 307 306 305 308 308 310 310 311 313 313 317 316 318 319 319 319 321 319 323 324 326 328 328 328 330 326 328 327 329 327 322 322 321 314 316 322 326
309 314 313 312 310 308 308 306 307 305 295 302 308 307 311 310 311 312 315 315 316 318 319 320 318 318 322 324 325 328 327 328 328 330 333 329 335 330 328 324 320 317 314 317 322
308 310 312 311 310 308 307 306 306 300 292 298 308 307 309 308 307 313 315 315 316 318 318 318 319 319 321 324 322 325 324 325 329 331 331 330 333 329 328 328 324 319 315 314 316
307 306 313 311 308 307 306 307 301 293 292 303 310 309 311 309 311 313 316 313 312 316 314 314 310 314 318 319 322 322 323 322 323 329 334 330 332 330 329 329 328 324 319 316 314
306 305 312 309 308 306 307 305 301 293 297 310 309 310 309 309 312 312 315 314 314 316 316 309 313 310 312 320 318 324 326 328 329 327 333 326 330 330 325 324 325 326 325 319 316
304 304 305 309 307 305 306 303 297 293 297 306 309 308 308 308 308 312 312 314 312 313 315 317 318 312 313 320 322 323 325 328 329 327 324 318 331 328 323 323 322 318 322 323 317
305 305 303 308 306 305 306 304 301 298 302 309 311 309 309 311 310 309 310 312 313 312 316 318 319 311 312 313 318 322 325 321 321 310 318 315 315 311 316 315 320 320 315 319 315
303 302 300 307 306 305 305 303 299 298 306 309 307 309 310 312 314 310 311 310 310 312 313 316 318 312 313 312 312 316 318 324 322 325 328 321 317 322 317 316 312 311 310 311 311
302 300 302 306 305 304 305 302 302 303 306 304 304 304 305 312 313 314 315 313 310 310 311 314 316 313 312 313 316 316 318 321 319 321 325 322 319 309 317 316 315 313 309 308 307
298 303 303 306 305 303 304 300 305 305 304 304 303 305 307 310 312 312 314 312 311 311 313 313 317 312 314 311 312 318 319 319 325 324 318 313 317 306 305 305 306 308 305 306 305
298 300 303 305 306 305 304 302 304 303 304 303 305 305 306 310 310 310 312 311 310 312 315 315 316 316 315 313 311 313 315 318 318 315 322 319 321 306 304 304 305 306 304 303 303
298 304 304 304 304 304 304 303 303 302 303 301 303 304 305 307 306 308 309 308 309 312 314 314 316 317 315 312 313 316 318 316 319 322 322 321 320 311 305 306 305 305 304 302 301
296 302 300 305 305 304 303 302 303 304 303 302 303 304 303 303 306 306 307 306 307 310 312 313 313 315 313 312 313 314 316 317 319 320 322 321 318 317 306 304 304 305 304 303 302
299 301 299 302 303 303 304 302 303 303 303 303 303 304 302 302 302 305 305 306 307 308 313 310 312 312 314 316 313 314 315 316 317 319 320 317 313 312 310 303 303 304 303 303 304
294 297 304 304 304 304 303 302 302 302 302 302 303 304 304 302 302 302 305 305 306 307 307 307 311 313 318 313 314 316 314 315 315 316 318 319 316 309 307 303 303 303 302 303 303

GFSSW_925_thetae_165.txt.gz
Theta_e
313 312 313 313 312 314 313 313 314 314 315 313 313 314 315 317 318 322 325 324 325 323 322 325 329 330 328 323 319 316 319 324 325 327 325 319 318 321 323 328 328 330 328 329 330
313 313 312 313 312 313 313 311 313 313 312 311 310 313 315 318 319 320 321 323 324 324 324 326 328 327 323 323 321 322 322 322 320 321 323 321 319 316 327 329 331 332 331 329 327
314 313 313 312 312 312 313 313 313 314 311 310 311 313 316 319 316 316 315 319 325 324 324 324 328 326 326 324 323 321 324 319 320 322 321 323 322 318 323 329 328 331 330 327 326
314 313 313 311 312 311 312 312 313 313 311 311 312 313 318 318 302 319 319 319 321 323 321 325 324 328 326 329 323 327 326 322 325 323 324 326 321 324 318 325 320 324 328 328 327
315 314 313 312 310 311 311 311 313 314 310 310 312 314 317 316 314 320 317 320 320 323 321 323 326 325 328 325 324 327 326 326 326 325 324 323 325 324 318 317 318 328 329 328 328
315 314 312 312 311 310 310 311 313 314 311 310 311 315 316 312 311 312 313 315 321 323 319 322 323 323 325 324 325 324 325 326 326 327 325 326 325 322 321 315 326 329 329 328 329
315 315 313 311 311 310 310 309 312 313 311 311 310 314 315 312 316 318 315 319 324 323 320 320 322 325 322 324 322 325 328 326 325 325 326 323 326 326 322 314 322 329 329 329 328
315 315 314 312 311 310 309 308 309 310 310 312 311 314 311 312 311 317 317 320 323 319 319 320 321 321 322 321 324 328 327 331 327 326 324 324 327 324 320 317 316 326 327 329 328
315 314 314 313 311 310 309 309 307 310 312 311 313 312 309 312 313 314 315 319 322 321 319 321 321 322 322 326 328 327 329 329 328 326 323 325 326 322 322 321 319 318 327 328 329
316 315 313 313 311 310 309 308 307 311 311 311 312 313 310 312 313 314 315 318 317 320 321 320 320 322 323 325 324 323 329 326 329 326 324 322 322 322 320 316 320 314 324 328 328
315 315 313 313 312 310 309 309 310 310 311 309 310 308 310 313 314 316 316 317 317 319 322 322 324 324 322 323 322 320 323 324 324 325 326 326 325 323 322 321 322 319 314 327 328
312 315 314 313 312 311 308 307 306 305 309 308 308 309 312 315 313 315 316 315 315 319 319 322 322 321 322 322 324 325 325 325 325 325 326 325 326 324 324 323 323 323 315 315 325
311 314 314 313 312 311 309 306 306 306 305 306 307 309 311 311 312 314 316 316 315 315 319 319 318 316 320 323 326 327 328 327 328 327 327 328 329 327 325 323 323 323 319 311 317
311 312 315 313 312 311 308 306 306 303 297 304 308 308 310 308 310 312 315 315 316 318 316 316 314 315 319 321 321 326 323 325 328 328 334 328 332 325 327 326 323 323 323 319 313
311 312 315 313 312 310 308 306 306 302 301 302 307 307 309 307 308 312 314 315 316 315 318 317 317 316 317 317 320 322 322 324 325 327 327 329 333 328 324 325 325 322 321 320 318
308 312 314 313 311 310 307 306 302 302 301 299 307 309 311 307 309 312 315 313 313 315 314 313 310 314 316 315 316 320 323 325 325 325 325 324 330 328 325 324 324 323 321 319 316
306 309 310 313 311 308 306 305 302 303 298 306 307 309 309 309 311 310 313 315 317 317 315 312 313 311 313 319 318 321 322 324 327 326 330 323 327 327 322 321 322 324 323 320 316
305 307 309 313 309 307 305 306 304 297 298 304 307 307 307 308 308 310 310 311 311 312 312 313 314 313 311 315 319 322 322 325 329 328 325 320 330 327 322 321 321 321 322 322 320
304 307 306 309 307 306 304 306 302 300 299 308 307 307 307 307 306 310 309 308 308 310 311 312 312 311 312 314 316 319 322 320 324 313 321 320 316 314 316 319 320 321 320 318 319
304 306 306 307 306 305 304 305 302 299 306 306 303 306 306 308 306 309 311 307 309 308 308 314 315 312 313 313 313 318 318 321 322 324 326 320 319 320 318 317 319 316 318 319 319
303 303 304 306 306 305 306 306 298 299 306 305 305 306 306 307 307 309 308 307 308 309 309 310 315 310 313 315 319 318 321 321 322 323 321 320 318 312 317 317 316 315 314 312 313
298 304 301 303 305 304 306 302 300 304 303 303 303 302 306 306 310 307 308 306 308 309 311 309 314 315 314 312 311 316 319 320 325 324 320 314 320 311 305 306 305 306 306 306 305
299 300 303 302 306 306 305 303 303 305 304 303 305 305 306 308 309 309 308 309 308 308 310 311 314 315 314 314 311 315 317 319 320 317 322 324 323 309 303 302 302 304 305 304 304
299 302 305 304 304 305 306 304 305 304 302 302 303 304 306 309 305 309 310 309 308 310 312 310 314 311 311 310 311 315 316 317 318 322 322 321 321 317 315 308 305 304 304 303 302
297 302 300 305 303 305 304 303 305 305 302 302 303 306 306 308 306 308 309 307 306 310 312 314 313 311 314 314 309 313 312 315 319 319 321 319 319 318 317 317 314 303 304 303 302
298 300 300 303 302 305 305 303 304 302 302 303 305 305 301 307 304 306 307 305 305 308 310 311 312 308 308 308 309 311 312 312 316 317 318 319 319 316 310 312 314 312 303 303 302
295 295 300 304 303 305 305 303 303 302 301 301 303 303 301 301 301 302 302 302 304 307 307 310 310 310 310 309 313 315 313 313 313 315 315 318 316 315 312 308 308 309 305 303 303

GFSSW_925_thetae_168.txt.gz
Theta_e
314 312 313 313 312 312 313 313 313 312 314 314 314 315 315 316 317 322 325 321 323 323 321 324 328 328 327 323 319 315 319 324 324 325 323 320 322 317 320 328 329 329 328 328 329
315 314 312 313 312 312 313 313 313 313 314 313 311 313 314 317 319 320 318 322 323 324 324 326 328 326 323 324 321 326 324 322 320 321 323 321 322 322 322 324 330 331 329 327 327
314 315 314 312 312 312 312 313 312 313 313 311 310 312 315 318 313 314 313 318 323 324 323 324 327 325 326 324 323 320 327 321 319 320 320 323 321 321 323 325 327 326 325 325 325
314 314 314 313 311 311 311 312 312 312 313 310 309 312 316 318 302 318 318 317 320 324 322 324 324 329 327 328 323 327 323 321 320 321 322 326 322 324 321 322 320 317 320 325 324
315 315 314 313 312 310 311 312 313 313 313 310 310 312 318 317 314 318 317 318 318 323 322 322 326 325 327 325 324 326 326 324 322 323 323 322 324 324 320 319 317 321 326 325 326
316 315 315 314 312 310 310 312 312 312 313 310 310 315 316 311 311 312 314 317 320 323 321 323 324 322 325 324 324 323 324 324 324 325 325 325 324 322 321 316 319 325 326 325 326
316 315 315 314 313 310 309 311 311 312 313 310 311 315 314 310 315 316 315 319 321 323 318 321 322 324 322 324 321 324 328 324 324 324 324 323 325 323 321 319 319 325 325 326 327
316 316 315 314 313 311 309 310 310 313 313 310 310 314 311 311 311 315 319 321 323 323 320 320 320 321 323 321 324 328 328 327 325 324 324 324 327 320 321 316 316 316 323 326 327
314 316 316 314 313 311 310 309 310 312 312 311 312 311 310 310 313 309 315 320 320 319 320 320 320 320 322 326 326 327 326 326 325 324 325 323 325 322 321 317 317 316 317 324 326
312 314 316 315 313 312 310 309 308 309 309 311 312 311 309 312 312 311 314 320 319 320 320 321 321 320 322 322 324 321 325 323 324 325 323 323 325 321 320 318 318 320 315 321 324
311 312 316 315 313 312 310 310 309 309 310 310 309 307 308 311 313 314 314 316 317 320 322 320 323 321 322 320 319 319 319 319 320 320 325 326 326 324 320 320 319 318 316 317 323
310 311 314 315 314 312 310 307 306 305 310 307 308 309 311 314 314 314 315 315 317 318 316 320 322 318 317 318 322 320 322 322 320 321 324 324 325 323 322 321 320 320 320 317 317
310 310 312 315 314 313 309 306 306 306 306 308 308 308 311 312 311 313 314 312 314 316 319 315 315 317 320 322 322 323 326 324 324 323 323 326 328 325 322 321 321 320 320 320 317
309 309 311 314 314 312 309 306 306 304 303 306 309 307 310 310 312 311 314 313 313 315 314 315 313 315 317 319 321 326 322 324 325 326 328 325 331 325 323 324 323 322 322 321 319
307 307 309 310 314 312 309 306 306 302 307 302 307 306 308 310 309 314 314 314 314 314 313 312 315 314 315 316 318 321 319 321 324 326 325 324 325 324 322 324 323 321 322 322 321
305 305 309 312 314 311 308 306 304 305 307 305 306 309 311 308 309 314 314 312 312 314 314 313 310 313 313 313 313 317 320 320 321 322 323 322 324 323 322 322 321 321 322 322 320
305 305 307 312 312 310 306 305 307 306 299 306 307 308 308 309 309 311 314 315 314 315 315 312 311 311 312 317 316 316 319 319 322 323 319 319 323 322 319 320 322 321 320 320 320
303 306 307 310 310 308 306 306 309 303 298 304 305 308 308 308 307 310 313 312 311 309 309 312 307 311 310 315 316 318 319 320 315 317 317 319 325 321 318 319 319 318 319 319 319
302 303 306 307 310 307 307 309 307 304 300 306 307 307 308 307 306 307 310 310 310 310 307 307 308 310 310 311 313 314 319 316 319 316 322 320 317 316 316 318 318 318 319 319 318
304 303 304 306 305 307 308 309 306 302 305 305 303 305 305 308 307 307 305 305 306 309 307 309 309 310 311 313 313 313 314 316 319 322 321 317 318 319 316 317 315 316 318 318 318
302 303 303 305 305 305 310 310 303 301 304 303 302 301 302 307 305 306 305 305 304 306 307 309 308 310 313 314 314 317 316 320 319 320 319 317 313 311 315 315 315 314 313 313 312
302 303 302 304 301 305 309 305 302 302 303 303 302 302 303 305 304 306 306 304 304 306 310 307 308 305 311 311 311 313 315 314 321 322 322 319 319 311 308 307 305 304 304 303 303
298 300 302 305 307 307 308 305 302 305 305 304 304 305 303 305 305 305 305 304 305 307 307 308 306 301 309 309 310 314 316 317 318 318 321 322 319 311 310 311 311 302 303 303 302
299 303 302 304 300 305 306 305 304 304 302 302 303 304 304 305 305 305 305 308 306 307 310 309 311 305 304 308 308 312 315 317 318 319 318 318 319 317 316 315 314 314 313 308 302
296 302 300 303 303 305 305 304 306 306 302 303 305 306 307 307 307 306 306 307 308 309 311 309 309 308 309 310 312 311 311 312 315 315 319 317 317 316 316 315 314 314 314 313 312
299 300 299 302 302 305 305 305 305 304 304 306 306 306 304 306 306 307 308 307 309 309 312 311 314 311 309 309 308 308 307 310 312 313 315 315 314 313 312 312 312 312 311 311 311
295 296 300 303 304 306 305 304 304 303 301 303 305 304 305 304 303 303 302 302 303 309 311 312 311 306 302 302 306 311 309 308 307 309 311 313 313 311 312 312 313 313 313 313 312

GFSSW_925_thetae_174.txt.gz
Theta_e
315 315 314 314 313 312 312 312 313 313 314 315 314 313 315 316 316 321 322 321 320 322 322 326 328 328 329 327 320 321 332 331 332 330 329 325 326 323 322 329 332 333 332 332 330
315 314 315 314 313 312 311 312 312 312 313 313 312 311 312 315 318 319 320 318 320 320 324 326 328 329 330 331 327 330 332 330 328 328 328 326 326 327 326 325 331 333 331 329 331
316 315 314 314 314 313 311 311 311 313 312 311 313 311 312 316 313 311 312 317 320 322 323 326 327 328 330 331 331 330 329 328 326 325 324 326 326 325 327 328 327 330 329 328 331
316 316 315 314 314 313 312 309 311 312 312 312 313 310 313 316 305 316 314 315 321 323 323 325 328 328 329 331 329 332 330 329 328 323 323 326 326 327 327 329 325 327 323 326 330
315 315 316 314 313 313 313 310 310 312 312 312 312 309 316 315 311 315 316 316 322 323 323 324 329 327 324 327 329 331 329 328 326 323 322 324 326 327 327 326 324 322 322 324 327
312 315 315 316 314 313 313 311 309 311 312 312 312 309 314 313 310 309 317 316 319 321 323 323 324 326 326 326 326 327 329 328 327 327 326 326 327 325 326 326 326 325 325 326 327
312 312 315 316 316 313 312 312 309 310 312 311 312 313 312 311 310 310 315 320 320 319 322 323 323 324 325 327 324 326 327 327 328 328 328 327 329 329 327 326 327 326 325 325 326
311 312 312 315 316 314 312 312 309 309 312 312 312 313 310 310 311 315 315 319 321 320 321 322 323 323 325 323 325 325 325 326 320 324 325 327 321 320 323 324 324 324 324 324 324
310 312 311 314 315 315 313 312 309 309 312 312 312 312 312 309 311 310 314 319 321 320 320 320 322 323 325 324 324 327 324 324 321 324 323 327 324 323 322 322 322 322 321 322 322
309 310 312 311 315 316 314 312 310 310 311 311 311 310 309 309 311 310 312 319 319 320 320 322 322 322 322 323 321 320 324 321 321 323 325 326 326 324 323 323 323 323 323 323 323
307 309 310 311 314 315 314 313 311 311 311 312 311 310 308 310 311 311 312 318 319 320 320 320 322 322 320 322 318 317 318 319 318 318 320 320 320 319 318 319 321 320 320 320 321
307 308 309 310 312 315 315 312 310 309 312 309 308 309 309 312 311 312 313 317 319 319 318 320 321 318 317 319 321 320 320 320 319 318 318 318 318 317 319 319 320 321 321 321 321
306 308 309 308 310 315 314 312 310 308 310 310 308 310 310 311 310 311 314 316 318 317 320 318 316 316 318 319 320 319 318 319 319 317 318 321 323 320 319 319 320 320 321 321 322
302 305 308 308 312 315 315 311 308 306 310 310 310 310 311 311 311 310 314 315 317 317 317 319 315 318 319 320 319 320 316 318 319 320 321 321 324 319 319 320 320 320 321 321 321
299 304 307 308 311 314 314 310 307 305 313 309 310 308 310 310 311 313 314 313 314 316 318 318 317 317 320 319 317 317 318 319 321 322 324 322 326 320 319 320 319 318 318 319 320
298 302 303 309 311 312 313 308 305 307 311 310 309 310 312 310 311 313 314 312 312 314 315 314 312 314 316 316 318 317 319 319 319 319 322 319 319 316 314 314 315 315 316 317 318
300 299 301 307 311 311 310 306 310 310 307 309 310 311 311 311 311 312 313 314 313 315 315 313 314 314 312 316 316 317 318 319 319 320 319 314 317 318 314 315 315 315 315 316 317
300 301 302 300 309 311 307 309 314 310 310 307 309 310 310 311 311 312 312 312 312 309 311 314 314 314 315 313 315 318 315 315 315 316 313 315 316 315 315 317 317 317 318 319 319
300 300 301 301 304 311 310 313 314 308 307 309 310 311 310 310 310 311 311 312 312 309 308 310 309 310 314 314 313 315 317 313 317 315 319 316 315 314 314 313 313 314 315 317 318
300 301 300 299 303 310 308 313 312 306 307 308 310 310 311 311 311 312 311 310 311 310 308 310 311 310 312 312 313 315 313 316 316 315 314 311 312 313 313 312 312 314 314 314 315
300 300 300 300 304 305 311 311 307 305 306 308 310 310 309 311 310 312 312 308 310 311 309 309 309 313 312 315 316 314 318 316 314 314 312 310 309 311 312 313 314 314 313 314 314
301 300 300 300 303 307 309 308 304 306 307 303 308 309 309 310 310 311 310 308 309 311 312 309 308 311 312 311 311 314 314 314 314 314 314 313 312 310 311 312 312 313 313 314 313
299 300 300 302 305 309 304 304 305 307 307 307 307 306 307 308 309 309 308 308 306 311 311 311 312 310 311 310 310 313 313 313 313 313 316 316 311 310 312 312 312 312 312 313 313
298 302 302 302 304 307 308 306 306 306 307 306 305 305 307 308 305 309 307 305 305 310 311 310 309 310 309 305 308 312 312 312 314 316 315 315 313 312 311 311 310 311 312 313 313
297 302 299 304 304 306 306 306 307 307 305 306 306 307 307 308 306 307 306 306 306 309 310 311 312 309 308 306 308 310 311 312 313 313 313 311 309 310 311 310 311 311 312 312 311
300 302 299 303 302 305 305 307 307 306 306 306 306 307 307 307 307 307 307 307 307 308 310 310 310 309 307 308 309 310 308 310 312 314 312 312 312 311 310 311 310 310 310 310 310
294 297 303 304 304 306 306 306 307 305 305 306 306 307 306 306 305 305 305 306 307 307 309 310 310 309 309 309 309 309 309 310 311 310 310 312 312 311 310 309 307 307 310 309 310